Overview Statistics Trail Chart Weather Telemetry Raw packets
 

This is the latest recevied weather packets stored in our database for station/object WA2GUG. If no packets are shown the sender has not sent any weather packets the latest 10 day(s).

<< 49 50 51 52 53 54 55 >>
Time Temp. Humidity Pressure Rain* Wind** Luminosity Snow
1777386249 23.33° C 99% 1013 hPa - - - -
1777385948 22.78° C 99% 1013 hPa - - - -
1777385648 22.78° C 99% 1013 hPa - - - -
1777385348 22.22° C 99% 1013 hPa - - - -
1777385048 21.67° C 99% 1013 hPa - - - -
1777384748 21.67° C 99% 1013.1 hPa - - - -
1777384448 21.67° C 99% 1013 hPa - - - -
1777384152 21.67° C 99% 1013 hPa - - - -
1777383848 21.11° C 99% 1013.1 hPa - - - -
1777383548 21.11° C 99% 1013 hPa - - - -
1777383249 21.11° C 99% 1013.2 hPa - - - -
1777382948 20.56° C 99% 1014 hPa - - - -
1777382648 20° C 99% 1014 hPa - - - -
1777382348 20° C 99% 1014 hPa - - - -
1777382048 20° C 99% 1013.2 hPa - - - -
1777381748 19.44° C 99% 1014 hPa - - - -
1777381448 18.89° C 99% 1014 hPa - - - -
1777381148 18.33° C 99% 1014 hPa - - - -
1777380848 17.78° C 99% 1013.2 hPa - - - -
1777380548 17.78° C 99% 1014 hPa - - - -
1777380248 17.22° C 99% 1013.2 hPa - - - -
1777379948 16.11° C 99% 1014 hPa - - - -
1777379649 15.56° C 99% 1013.2 hPa - - - -
1777379348 13.89° C 99% 1014 hPa - - - -
1777379048 13.33° C 99% 1014 hPa - - - -

* Rain since midnight (hover to see other rain measurements)
** Current wind speed in m/s (hover to see current wind gust speed)